Content
SEND FEEDBACK

Daily
Averages
Monthly
Summary
United States of America

CHICAGO, ILLINOIS


Home > North America > United States > Illinois
Elevation: 674 feet     Latitude: 41 59N     Longitude: 087 54W

WEATHER
 
SELECT A DAY
Number of Records: 197,283;   Date Range: 7/8/95 - 10/1/14
 
SHARE

PRINT THIS DATA

[ ← Previous Day ]
WEATHER ALMANAC - JUNE 26, 2013
[ Next Day → ]
[ °C ]   °F
We're sorry. There is no daily almanac available for Chicago, Illinois on June 26, 2013.
WEATHER BY HOUR - JUNE 26, 2013
[ °C ]   °F
Local TimeTemperatureDewpointHumidityBarometerVisibilityWind DirectionWind SpeedGust SpeedPrecipitationEventsConditions
1:52 AM72.0 °F64.9 °F78 %29.80 in10.0 miSouth (180°)4.6 mphPartly Cloudy
2:52 AM71.1 °F64.9 °F81 %29.79 in10.0 miSE (130°)3.5 mphMostly Cloudy
3:40 AM71.6 °F64.4 °F78 %29.79 in10.0 miSSE (150°)5.8 mphThunderstormThunderstorm
3:52 AM71.1 °F66.0 °F84 %29.78 in10.0 miSouth (180°)4.6 mphThunderstormThunderstorm
4:06 AM71.6 °F66.2 °F83 %29.80 in1.8 miSW (220°)9.2 mph16.1 mph0.19 inRain-ThunderstormHeavy Thunderstorms and Rain
4:12 AM71.6 °F66.2 °F83 %29.82 in0.8 miWSW (250°)3.5 mph0.44 inRain-ThunderstormHeavy Thunderstorms and Rain
4:25 AM69.8 °F66.2 °F88 %29.85 in0.8 miNNE (20°)10.4 mph1.03 inRain-ThunderstormHeavy Thunderstorms and Rain
4:42 AM68.0 °F66.2 °F94 %29.83 in1.0 miENE (60°)6.9 mph1.72 inRain-ThunderstormHeavy Thunderstorms and Rain
4:49 AM68.0 °F64.4 °F88 %29.83 in1.0 miNorth (10°)3.5 mph1.94 inRain-ThunderstormHeavy Thunderstorms and Rain
4:52 AM68.0 °F64.9 °F90 %29.82 in1.0 miNorth (360°)9.2 mph1.99 inRain-ThunderstormHeavy Thunderstorms and Rain
5:02 AM68.0 °F64.4 °F88 %29.81 in1.2 miNorth (360°)8.1 mph20.7 mph0.25 inRain-ThunderstormHeavy Thunderstorms and Rain
5:20 AM68.0 °F64.4 °F88 %29.83 in0.8 miNW (320°)13.8 mph23.0 mph0.68 inRain-ThunderstormHeavy Thunderstorms and Rain
5:26 AM68.0 °F64.4 °F88 %29.81 in1.2 miNorth (350°)11.5 mph21.9 mph0.77 inRain-ThunderstormHeavy Thunderstorms and Rain
5:31 AM66.2 °F64.4 °F94 %29.80 in2.0 miNorth (10°)10.4 mph19.6 mph0.81 inRain-ThunderstormHeavy Thunderstorms and Rain
5:52 AM68.0 °F64.0 °F87 %29.81 in5.0 miCalm0.91 inRain-ThunderstormLight Thunderstorms and Rain
6:03 AM68.0 °F64.4 °F88 %29.86 in1.8 miWNW (290°)10.4 mph0.15 inRain-ThunderstormHeavy Thunderstorms and Rain
6:07 AM66.2 °F64.4 °F94 %29.87 in0.8 miWest (270°)6.9 mph0.27 inRain-ThunderstormHeavy Thunderstorms and Rain
6:52 AM66.9 °F64.9 °F93 %29.85 in0.8 miSSE (150°)10.4 mph1.30 inRain-ThunderstormHeavy Thunderstorms and Rain
7:02 AM66.2 °F64.4 °F94 %29.85 in2.0 miSSE (160°)6.9 mph0.11 inRain-ThunderstormHeavy Thunderstorms and Rain
7:11 AM66.2 °F64.4 °F94 %29.85 in4.0 miSSE (150°)6.9 mph0.14 inRain-ThunderstormThunderstorms and Rain
7:44 AM66.2 °F64.4 °F94 %29.84 in10.0 miSSE (160°)9.2 mph0.20 inRainLight Rain
7:52 AM66.9 °F64.9 °F93 %29.83 in10.0 miSSE (160°)9.2 mph0.20 inRainLight Rain
8:52 AM69.1 °F66.0 °F90 %29.82 in10.0 miSE (130°)6.9 mph0.00 inMostly Cloudy
9:08 AM69.8 °F66.2 °F88 %29.83 in1.8 miSE (130°)10.4 mph0.08 inRainHeavy Rain
9:16 AM69.8 °F64.4 °F83 %29.82 in3.0 miSE (140°)10.4 mph0.09 inRainLight Rain
9:52 AM69.1 °F64.9 °F87 %29.80 in10.0 miSE (140°)6.9 mph0.13 inMostly Cloudy
10:52 AM71.1 °F64.9 °F81 %29.77 in10.0 miSSE (160°)11.5 mphMostly Cloudy
11:52 AM73.9 °F66.0 °F76 %29.78 in10.0 miSSW (200°)8.1 mphMostly Cloudy
12:52 PM75.0 °F66.0 °F73 %29.76 in10.0 miSouth (190°)10.4 mphScattered Clouds
1:52 PM75.9 °F66.0 °F71 %29.74 in10.0 miSouth (180°)6.9 mphScattered Clouds
2:06 PM75.2 °F66.2 °F73 %29.75 in10.0 miSouth (180°)6.9 mphMostly Cloudy
2:17 PM77.0 °F66.2 °F69 %29.75 in10.0 miVariable4.6 mphScattered Clouds
2:24 PM77.0 °F66.2 °F69 %29.76 in10.0 miWest (260°)6.9 mphMostly Cloudy
2:52 PM77.0 °F66.9 °F71 %29.76 in10.0 miWSW (250°)4.6 mph0.00 inRainLight Rain
3:12 PM78.8 °F66.2 °F65 %29.77 in10.0 miSW (230°)8.1 mph0.00 inMostly Cloudy
3:52 PM78.1 °F66.0 °F66 %29.75 in10.0 miSW (220°)5.8 mph0.00 inMostly Cloudy
4:52 PM78.1 °F66.9 °F68 %29.73 in10.0 miCalmOvercast
5:27 PM77.0 °F68.0 °F74 %29.75 in10.0 miNE (50°)5.8 mphOvercast
5:52 PM73.9 °F66.9 °F79 %29.75 in10.0 miNNE (30°)8.1 mphOvercast
6:15 PM73.4 °F66.2 °F78 %29.75 in10.0 miNE (40°)6.9 mphMostly Cloudy
6:27 PM73.4 °F66.2 °F78 %29.75 in10.0 miNNE (20°)5.8 mphOvercast
6:52 PM73.0 °F66.0 °F79 %29.73 in10.0 miNE (40°)4.6 mphOvercast
7:10 PM73.4 °F66.2 °F78 %29.74 in10.0 miNE (50°)5.8 mphPartly Cloudy
7:37 PM73.4 °F66.2 °F78 %29.75 in10.0 miCalmMostly Cloudy
7:52 PM73.9 °F66.0 °F76 %29.75 in10.0 miNorth (350°)3.5 mphOvercast
8:31 PM73.4 °F66.2 °F78 %29.76 in10.0 miNNE (30°)3.5 mphOvercast
8:52 PM72.0 °F66.0 °F81 %29.75 in10.0 miNorth (360°)3.5 mphScattered Clouds
9:25 PM71.6 °F66.2 °F83 %29.77 in10.0 miNNE (20°)3.5 mphMostly Cloudy
9:39 PM71.6 °F66.2 °F83 %29.76 in10.0 miNNE (20°)3.5 mphScattered Clouds
9:52 PM71.1 °F66.0 °F84 %29.76 in10.0 miNNW (340°)3.5 mphClear
10:52 PM69.1 °F66.0 °F90 %29.77 in9.0 miNE (50°)5.8 mphClear
11:52 PM66.9 °F64.0 °F90 %29.78 in8.0 miNW (320°)3.5 mphClear
Hourly data recorded from KPWK, located miles away from Chicago, Illinois







STORIES FROM OUR PARTNERS